Wind_Speed
15 15 15 15 15 15 15 15 16 16 16 16 16 15 15 16 16 17 18 18 19 19 18 17 16 16 17 18 20 20 20 21 19 22 26 20 12 13 14 13 15 17 18 15 14 22 26 25 26 26 26 23 17 17 21 19 14 10 4 2 5 4 4 4 5 4 4 6 10 18 23 20 14 14 16 14 14 24 22 12 17 9 8 22 19 30 37 31
17 16 16 16 16 16 16 16 17 17 17 17 16 17 16 16 16 17 18 18 19 19 18 17 16 16 16 18 19 20 21 21 22 24 20 11 9 16 18 17 19 20 20 19 17 23 30 30 30 28 25 19 16 16 15 16 16 10 3 2 6 5 5 5 6 4 5 8 10 17 24 23 19 20 21 13 12 18 14 11 15 12 17 20 22 34 34 34
19 18 17 17 17 17 17 17 17 18 18 17 17 17 17 17 17 17 18 18 19 19 19 17 16 16 16 17 18 19 20 21 25 21 10 5 9 15 21 24 24 24 23 21 17 20 26 28 30 28 23 16 15 15 12 13 14 13 7 3 8 7 6 8 9 5 7 13 11 14 19 18 23 26 21 14 14 14 10 15 17 18 24 25 30 36 34 36
19 19 18 18 18 18 18 18 18 18 18 18 18 18 18 18 18 18 18 18 19 19 19 17 15 16 16 16 16 17 18 19 19 10 2 4 5 9 21 29 29 26 23 21 17 16 19 23 29 26 19 12 14 14 12 14 11 10 10 7 7 4 4 11 10 5 5 18 16 15 15 14 25 26 21 21 14 6 10 24 28 29 32 34 38 37 37 37
20 20 19 19 19 19 19 19 19 19 19 19 19 19 19 18 18 18 18 19 19 19 20 18 15 15 16 16 15 15 13 10 5 1 2 4 6 1 18 30 31 26 22 19 17 16 18 23 28 23 15 9 11 11 13 21 14 5 11 15 12 5 5 14 7 1 7 22 20 15 15 17 24 20 24 28 14 12 23 31 33 35 38 40 42 41 39 38
20 21 20 20 20 20 20 20 20 20 20 21 20 20 20 19 19 18 18 18 19 20 19 18 15 14 16 16 15 13 7 4 5 2 1 3 7 3 16 29 27 23 19 18 18 19 19 22 24 20 13 7 8 10 11 18 16 7 10 13 16 12 11 20 14 2 8 22 18 16 20 23 21 13 27 30 15 22 33 34 32 34 40 42 44 43 41 40
21 21 21 21 21 21 21 21 21 21 21 22 22 22 21 21 20 19 19 18 19 19 19 18 15 14 15 15 15 12 9 14 12 5 4 3 4 2 16 26 22 20 19 18 20 21 21 22 24 21 12 6 7 13 13 12 14 11 10 11 15 16 16 25 25 13 6 20 21 21 21 22 19 12 24 22 11 21 31 33 33 34 40 42 42 44 43 42
21 21 21 21 21 22 22 22 21 21 22 22 22 22 22 22 21 20 20 19 19 19 19 18 15 15 14 14 14 10 14 20 12 5 10 8 6 7 17 24 21 20 19 19 21 22 23 23 25 21 11 9 9 9 12 10 10 11 11 13 13 16 22 27 29 21 8 18 22 21 19 23 26 20 22 17 11 23 31 33 34 36 40 40 42 43 42 42
21 21 21 21 22 22 22 22 22 22 22 22 23 22 22 22 21 21 20 20 20 19 19 17 15 16 13 14 11 9 17 16 8 5 13 13 11 12 16 22 22 21 20 19 21 22 24 25 26 22 10 9 12 9 8 7 7 10 14 16 14 17 24 26 26 21 10 16 18 16 15 21 24 19 13 13 20 28 33 35 36 39 40 39 41 42 42 43
22 22 21 21 22 22 22 22 22 22 23 23 23 23 22 21 21 21 21 21 20 20 19 17 16 15 14 14 6 6 14 10 5 7 10 14 14 16 17 19 20 21 20 21 23 25 26 25 27 25 12 8 10 11 9 8 6 9 15 18 19 22 27 26 24 22 11 17 23 19 13 16 21 16 6 13 28 32 35 37 38 41 40 40 40 41 42 42
23 23 23 23 22 22 22 22 22 22 22 23 24 24 22 21 21 21 22 21 21 20 19 18 16 15 15 14 11 11 15 13 9 6 8 12 13 18 19 19 19 20 20 21 23 24 24 24 24 21 12 9 9 10 10 13 12 14 15 14 18 21 26 26 22 22 11 13 28 24 10 11 17 13 10 23 35 36 39 39 40 42 40 40 40 40 41 41
24 24 24 24 24 24 23 22 22 21 22 23 23 23 22 21 21 21 22 21 21 20 19 18 16 15 14 16 24 22 14 11 9 6 9 8 9 15 20 21 20 19 19 20 21 21 20 22 23 19 13 8 6 6 9 12 13 16 14 9 12 11 15 20 20 23 12 9 24 21 8 7 12 10 17 32 38 39 41 39 40 41 38 39 39 39 40 41
25 25 25 25 25 25 24 24 23 22 22 22 22 21 21 21 20 20 20 20 20 19 19 17 16 16 12 17 29 27 17 14 14 12 9 6 7 12 19 22 23 21 20 19 19 19 19 21 23 25 22 11 3 5 11 14 11 10 8 5 6 5 7 13 16 22 13 9 23 20 5 8 10 10 21 34 39 38 36 36 38 37 37 38 38 38 40 41
26 26 27 27 26 26 25 25 24 23 22 22 21 20 20 20 19 19 18 19 19 18 18 16 15 14 13 21 28 24 21 21 24 22 15 12 11 12 16 20 23 24 22 20 18 16 17 20 23 24 23 19 13 12 13 13 8 5 5 3 3 3 7 9 9 12 10 10 26 20 5 9 8 10 26 36 40 40 34 34 36 36 36 37 37 38 39 41
26 26 27 28 28 27 26 26 25 24 23 22 20 19 18 17 15 14 13 14 15 16 16 13 13 11 12 23 26 20 18 20 24 25 22 20 19 17 17 19 21 23 22 20 18 15 14 18 22 18 15 19 16 11 7 6 4 2 4 4 2 3 7 9 5 8 9 9 24 19 5 7 7 11 28 35 39 39 34 33 35 35 36 37 37 38 39 40
25 26 26 27 28 28 28 27 26 25 23 22 20 17 15 12 11 10 9 9 9 10 10 9 11 10 8 15 16 13 15 17 17 19 23 26 25 24 21 19 20 21 22 21 19 17 15 16 19 17 14 11 7 5 4 5 4 2 3 5 4 4 4 7 6 7 13 8 15 17 5 4 4 12 27 33 36 35 30 32 34 35 35 37 37 37 38 38
26 26 26 27 27 28 28 27 28 26 23 22 19 14 11 10 8 6 3 3 5 5 5 5 6 7 11 13 11 10 12 12 11 12 18 25 28 27 24 22 22 23 23 23 22 20 16 15 14 12 11 7 3 4 3 6 6 3 2 4 4 5 4 5 7 5 9 9 11 12 6 4 5 15 26 30 34 31 28 30 33 34 35 36 37 36 37 38
27 27 27 27 27 28 27 27 28 26 23 21 18 13 9 8 6 2 1 4 8 4 2 5 6 2 11 15 14 13 10 8 7 9 12 17 25 29 27 25 24 23 20 17 19 19 16 13 10 4 4 6 5 6 7 7 4 3 4 4 3 4 5 6 6 5 4 8 11 9 5 5 6 14 24 30 34 31 28 32 34 34 35 35 36 36 38 39
29 29 29 28 28 28 27 27 27 27 25 18 14 11 7 7 6 4 4 9 10 5 4 7 11 4 7 10 12 12 10 9 7 9 11 12 20 27 28 27 25 22 13 6 9 14 14 7 6 7 6 8 8 8 10 6 3 5 5 4 4 5 6 6 6 4 3 6 9 10 7 7 9 14 19 26 32 29 27 29 30 31 33 34 35 37 39 40
30 31 30 30 29 28 28 27 27 27 23 16 14 10 6 10 6 3 12 23 21 16 17 17 19 20 22 21 18 15 14 13 11 12 12 10 16 24 27 25 21 17 10 6 6 11 13 6 6 9 7 8 8 7 8 6 7 7 4 5 6 5 8 7 4 6 4 5 9 11 10 9 14 16 17 25 29 23 22 24 26 30 32 34 35 37 40 42
32 32 32 32 30 30 29 26 28 26 18 16 16 10 10 13 6 7 21 28 24 20 23 27 27 32 35 33 29 23 18 15 14 16 13 10 16 20 23 21 12 9 9 9 7 6 10 9 9 9 6 7 7 6 6 6 8 8 6 6 6 5 9 9 4 6 3 3 8 9 8 10 15 17 17 23 23 19 24 25 27 32 33 34 37 38 42 44
33 32 34 33 31 32 28 27 29 20 15 16 11 10 12 13 8 10 15 18 25 27 28 32 33 38 40 38 35 29 19 13 16 20 16 14 20 19 18 18 9 6 7 7 6 4 7 10 9 8 6 6 5 6 6 6 7 7 6 5 7 5 5 9 6 6 4 3 6 6 8 10 13 16 17 21 22 23 32 35 34 37 34 34 37 39 42 41
32 33 34 33 32 33 28 29 24 12 15 15 5 8 13 13 11 13 12 12 23 28 27 32 35 40 41 38 35 28 20 15 16 23 21 17 23 24 19 14 9 7 7 8 9 7 6 8 8 8 7 7 7 6 6 5 5 5 5 4 8 6 2 6 5 3 3 4 5 6 6 4 5 9 13 21 27 27 34 37 36 39 40 41 44 44 44 42
31 32 33 33 33 32 29 28 16 8 19 14 1 7 14 13 12 16 14 9 13 15 20 26 29 35 38 31 25 25 26 20 17 24 25 21 23 23 19 15 11 7 9 12 13 11 8 5 9 11 7 9 9 8 7 6 6 7 7 7 10 8 5 6 4 6 5 4 1 5 3 0 5 9 10 16 21 20 25 29 29 34 39 42 43 44 45 46
30 31 32 34 33 32 31 24 11 13 21 7 1 9 13 12 12 14 12 6 7 8 11 14 18 25 27 20 17 23 24 21 26 31 26 25 26 18 13 16 13 8 11 12 11 12 10 6 10 11 9 9 9 9 8 7 5 8 9 11 13 9 5 5 3 6 5 6 3 5 3 4 6 13 13 11 13 14 17 21 25 31 34 34 36 39 42 44
29 29 30 33 33 34 32 23 16 23 21 5 5 12 12 11 10 10 6 2 5 5 2 4 9 9 11 16 20 18 9 13 29 37 28 23 27 19 9 10 9 9 11 9 6 6 6 8 9 9 10 11 10 10 10 8 5 8 9 9 10 6 5 6 3 2 2 5 5 3 4 5 5 11 14 12 14 17 16 16 22 29 32 34 36 38 41 43
27 27 28 30 32 34 33 28 24 26 20 12 14 14 11 9 8 7 2 2 5 4 4 3 6 3 5 17 27 19 3 5 15 30 35 26 24 23 11 6 7 8 8 5 4 4 7 11 10 10 10 10 11 11 10 9 7 9 5 3 7 5 5 6 4 4 5 4 6 3 4 2 3 9 14 16 17 18 16 15 19 26 32 36 38 39 42 45
26 27 27 28 29 31 32 31 28 24 19 17 19 16 10 8 7 3 1 2 3 3 3 3 3 2 5 17 31 20 2 7 7 19 39 31 22 21 12 9 9 8 10 9 7 5 8 13 13 13 11 9 10 9 9 11 10 10 3 2 8 7 6 5 5 5 5 4 7 5 5 3 4 5 10 16 17 16 17 19 18 24 32 37 39 41 43 47
26 26 27 28 27 28 29 30 27 23 20 19 19 14 9 7 4 2 2 2 3 1 1 3 2 3 9 15 25 18 3 3 1 10 31 30 23 17 8 11 11 7 11 12 9 5 6 16 19 14 11 9 8 7 9 12 12 8 4 6 7 7 5 4 6 5 3 4 8 8 7 5 6 4 6 10 14 16 17 18 18 25 35 38 40 43 44 46
27 26 29 29 28 28 29 28 24 20 19 19 16 11 7 4 1 3 3 3 2 2 1 4 2 3 9 9 10 13 7 4 4 9 23 23 25 17 5 10 10 5 7 9 11 8 3 12 18 12 11 10 8 8 11 14 13 5 3 7 8 7 5 1 3 4 3 5 10 11 9 7 7 5 5 9 13 17 16 15 17 22 31 37 41 44 45 46
28 26 28 30 30 30 29 25 20 16 17 17 15 10 5 2 2 3 6 3 2 3 2 4 6 7 2 3 3 6 6 5 2 9 13 11 15 12 3 7 8 4 4 6 10 10 5 6 8 7 14 14 9 8 10 12 12 6 3 4 4 6 5 4 2 2 5 9 7 10 9 9 9 7 5 10 15 19 18 17 19 20 27 37 43 45 46 47
30 28 27 30 29 23 21 21 16 12 13 12 11 7 1 0 1 4 4 4 3 1 4 3 4 7 4 4 2 5 4 4 2 6 10 9 9 10 8 7 7 6 6 8 6 5 7 8 4 5 14 16 10 7 8 7 9 9 5 5 4 3 3 5 4 2 6 8 5 8 8 7 9 7 8 12 16 19 19 20 24 25 30 40 45 47 47 47
32 29 27 29 25 15 14 21 16 8 7 6 5 2 2 2 4 5 5 4 1 3 5 4 7 8 5 3 3 6 5 3 4 3 9 12 9 11 12 8 8 8 5 7 5 3 4 7 7 7 8 13 13 8 7 7 7 9 8 6 6 5 4 6 5 3 6 6 4 6 6 4 6 5 10 15 16 21 25 30 34 35 38 46 49 49 48 47
33 31 29 28 19 8 11 21 18 8 4 3 3 1 2 5 4 2 5 5 2 5 6 7 9 8 4 3 3 4 3 5 6 3 5 9 8 9 10 9 9 7 3 3 4 6 6 6 8 11 6 10 13 11 9 6 6 9 7 6 7 6 5 5 4 4 5 6 5 2 4 5 5 6 11 15 17 25 32 37 39 38 43 48 47 46 45 46
36 31 29 28 15 5 13 23 20 9 4 4 3 3 5 6 3 1 2 4 4 5 9 10 7 4 3 3 3 3 4 3 6 5 4 7 9 9 9 9 10 7 4 4 3 4 9 8 6 9 8 10 11 11 9 7 5 7 6 6 8 7 5 4 4 5 3 4 4 2 3 5 5 5 8 13 16 21 27 32 33 33 36 38 35 37 42 45
37 29 28 27 12 6 18 26 20 7 5 3 3 4 5 3 1 0 2 3 3 6 10 8 3 3 4 3 3 8 9 5 2 2 4 6 7 9 9 7 10 11 7 6 4 2 6 8 4 4 6 10 13 10 10 10 6 3 5 8 8 7 7 6 5 4 2 4 5 3 4 4 3 5 5 9 13 15 18 22 24 27 30 29 30 35 41 45
35 33 33 20 8 14 25 24 16 7 6 3 3 5 3 2 1 0 1 3 4 7 6 4 3 2 3 3 3 7 10 7 5 4 1 3 4 7 9 7 9 14 12 9 5 3 5 6 4 8 9 13 15 11 8 11 10 5 5 8 3 3 6 5 3 5 5 6 5 2 5 5 3 5 4 6 10 12 14 15 18 22 23 25 30 37 43 47
32 35 30 10 10 26 29 21 14 7 7 2 4 5 1 2 4 4 3 4 4 4 3 1 2 1 2 3 3 6 10 5 4 7 3 2 2 2 2 5 6 10 16 16 7 3 6 6 6 9 12 10 10 9 6 8 12 8 5 7 6 3 6 4 3 6 6 6 6 3 5 5 5 5 4 7 10 11 12 13 15 17 17 22 30 37 43 47
30 31 19 9 19 29 25 20 11 9 8 2 4 4 2 3 6 9 11 8 2 2 2 2 2 2 3 3 4 6 6 3 4 5 2 2 2 5 10 6 4 7 10 16 11 4 5 5 6 6 10 8 5 7 7 8 10 6 2 5 5 4 6 6 4 4 4 5 5 3 4 5 6 6 7 10 11 12 13 13 13 15 18 24 30 35 41 44
28 20 13 18 27 25 22 14 5 11 4 2 4 3 3 4 6 10 14 10 2 1 2 2 3 3 3 4 6 5 4 4 4 2 1 4 2 5 11 11 7 12 13 9 10 8 4 4 6 5 4 7 4 5 10 10 9 6 5 6 6 3 3 5 4 3 4 5 3 3 6 7 5 5 9 11 11 12 13 13 14 16 23 30 34 37 41 43
24 9 11 24 28 24 23 8 6 4 2 2 2 4 5 6 6 10 15 13 5 3 4 4 5 5 4 5 5 4 3 4 4 1 2 3 4 3 10 14 10 10 11 7 4 6 3 4 6 6 5 6 5 7 11 13 12 10 7 7 8 5 3 4 5 2 3 5 5 5 8 9 5 5 8 10 11 11 13 14 13 16 26 34 38 41 42 44
15 6 16 27 26 26 23 7 0 4 0 2 6 6 7 7 6 8 11 10 8 3 5 4 4 4 2 2 3 4 4 2 3 2 1 2 5 4 11 21 18 12 8 4 3 6 5 2 8 9 8 7 8 9 11 13 13 11 9 8 7 5 5 6 7 4 3 3 2 3 6 8 5 7 8 9 10 11 13 13 11 16 26 33 37 41 42 44
11 16 25 26 25 24 16 3 3 6 2 8 12 9 9 6 6 7 6 7 8 4 3 2 1 3 3 2 3 4 4 2 0 2 3 3 5 7 15 25 22 13 8 4 4 10 10 2 5 6 6 5 6 7 5 7 10 9 9 9 8 8 8 7 6 5 4 4 3 2 6 6 4 6 8 7 8 10 12 14 14 16 23 29 34 38 39 41
18 24 23 22 24 18 9 3 5 6 6 11 11 9 9 6 6 8 7 6 5 2 2 2 2 4 3 2 3 2 4 3 1 5 5 3 4 10 19 26 21 10 7 6 6 7 6 3 1 2 5 6 5 6 6 5 6 4 6 10 12 14 12 6 3 3 4 6 7 5 7 6 5 4 6 4 5 7 8 13 18 19 21 27 31 33 36 38
18 16 11 19 24 13 7 6 6 5 7 10 9 9 9 7 7 9 8 7 5 4 3 4 5 6 3 2 3 1 2 1 1 5 6 4 5 7 16 23 18 9 9 13 13 8 3 3 2 3 7 8 6 6 7 6 4 3 5 10 14 17 17 10 4 4 6 5 7 7 6 5 7 5 7 6 6 7 7 10 15 20 25 28 30 31 33 35
11 6 5 16 19 10 7 9 9 8 7 8 8 6 8 8 8 10 9 5 7 11 7 5 5 5 2 5 4 2 2 3 3 4 5 5 4 3 13 19 15 11 16 20 19 10 2 2 4 5 5 6 5 6 6 6 7 9 11 11 12 16 18 13 7 7 6 4 6 8 6 4 6 5 5 7 7 9 9 8 11 18 25 28 31 34 33 33
5 3 3 8 10 8 8 9 10 9 8 8 6 4 9 10 7 8 6 4 10 12 5 4 5 5 4 5 3 2 3 3 4 4 4 4 3 5 11 13 10 14 19 18 17 10 1 2 5 5 6 6 6 11 11 8 11 14 14 13 13 12 15 16 13 9 9 7 9 8 8 6 7 7 7 8 8 9 10 10 11 17 23 26 29 33 33 34
3 4 7 6 3 4 5 7 10 10 9 10 5 4 9 10 7 7 5 6 11 9 3 4 7 8 7 5 2 2 4 4 2 1 3 5 5 7 9 6 5 15 19 13 11 8 1 3 4 6 11 12 10 12 13 11 12 12 14 16 16 13 15 18 16 11 11 11 11 8 11 11 8 8 8 8 9 10 10 11 12 15 20 23 25 28 31 34
5 7 9 7 3 5 9 13 14 10 8 8 5 4 7 8 8 9 7 6 8 7 4 3 5 9 9 6 2 1 2 3 2 2 3 5 6 6 6 3 3 13 16 10 7 6 2 4 5 8 12 14 13 12 11 10 11 11 12 17 17 16 17 18 17 13 14 15 11 9 12 12 9 10 10 12 16 14 9 10 14 16 18 21 23 26 30 34
6 6 8 7 5 9 12 11 9 7 6 6 4 3 5 7 8 9 8 6 6 6 5 4 6 9 8 7 5 3 3 3 5 4 3 4 5 3 3 2 3 9 10 7 5 5 3 4 8 9 9 10 11 10 10 9 10 12 13 13 16 19 19 19 17 13 11 12 10 8 10 9 8 8 9 13 17 13 7 8 13 18 19 18 19 24 30 34
9 9 10 8 5 7 7 6 5 4 4 3 3 4 5 6 7 7 8 8 7 5 5 6 8 8 8 7 6 7 9 7 7 8 7 6 6 4 3 3 5 7 6 4 4 3 2 3 7 7 6 7 7 8 13 16 11 10 14 15 16 17 17 16 13 11 11 12 11 9 8 7 8 8 8 9 9 8 7 8 12 18 18 16 19 23 27 32
10 11 10 6 4 4 4 4 3 3 3 2 4 6 6 7 8 6 5 7 7 8 11 10 8 6 6 8 8 10 14 15 14 15 14 13 13 12 12 12 10 7 4 4 4 2 1 2 5 5 4 6 8 10 13 13 8 8 15 17 16 14 13 12 10 10 12 13 11 11 10 9 10 8 6 8 8 8 10 11 11 13 14 15 20 22 25 31
Wind_Direction
342 340 337 333 331 327 326 323 319 316 314 311 309 307 306 305 305 306 306 306 307 305 305 307 307 305 302 299 295 294 293 290 288 281 274 276 283 267 252 238 223 210 209 203 189 186 181 178 182 180 176 180 193 201 199 206 209 202 195 200 242 249 223 214 209 188 136 152 154 155 152 141 151 153 145 152 143 146 150 154 166 176 168 164 166 164 163 164
342 341 337 335 332 328 328 325 322 320 316 314 313 309 306 304 302 302 303 303 304 304 304 306 307 306 303 300 299 300 298 297 293 283 279 285 270 244 220 211 215 208 204 200 192 187 183 180 179 178 178 186 201 203 202 209 207 202 185 198 227 228 219 215 203 182 116 152 160 161 159 147 151 153 147 146 138 146 140 139 153 137 142 155 160 162 164 163
343 341 338 335 332 329 328 325 324 321 319 317 314 311 309 306 303 301 300 300 301 302 301 304 307 305 303 301 302 305 306 306 299 288 288 299 262 237 208 197 201 202 201 201 198 193 191 182 177 176 180 197 208 205 208 206 204 206 207 243 241 236 249 257 239 225 126 151 163 162 161 146 149 156 152 146 148 159 153 149 152 143 148 155 159 162 163 164
343 341 337 334 331 329 327 325 323 320 318 317 314 312 309 306 305 302 301 299 299 298 298 301 304 303 301 301 303 307 314 314 302 286 321 341 302 244 208 193 192 196 199 204 204 199 197 185 179 179 181 208 220 217 224 213 201 194 204 227 241 230 253 268 256 253 155 161 168 160 154 146 154 158 153 146 144 174 188 174 169 163 160 159 161 164 165 168
344 341 338 335 332 329 326 324 322 319 317 314 313 309 307 306 304 302 301 299 297 296 295 296 301 302 298 299 302 306 321 328 306 166 44 14 33 277 204 192 188 192 196 201 204 198 198 191 183 183 190 217 221 225 236 223 216 206 223 230 247 260 266 276 259 188 190 170 166 161 157 156 159 162 160 155 155 189 194 188 178 171 167 165 166 167 169 173
343 341 339 335 332 329 326 324 321 319 316 313 311 307 306 304 302 302 300 298 296 294 292 292 297 298 294 298 300 301 309 275 245 209 270 70 54 41 189 188 185 188 194 192 195 196 194 189 184 186 199 220 214 222 235 223 219 240 255 241 255 260 260 274 267 237 175 168 170 174 164 157 158 173 173 169 179 190 188 185 178 174 172 168 167 169 172 176
342 340 337 334 332 329 327 324 321 318 316 313 310 306 305 302 301 300 298 297 293 291 289 289 294 293 291 293 294 295 267 256 274 281 236 143 88 147 177 182 183 186 193 187 188 194 193 186 188 192 197 217 221 230 236 226 218 234 266 258 262 263 260 270 272 281 191 178 188 175 160 160 168 179 180 185 205 185 180 178 176 172 170 167 168 172 175 178
340 338 336 334 331 329 327 324 322 319 315 312 309 305 302 300 299 297 296 294 290 290 287 286 291 288 286 287 290 294 266 267 297 283 221 193 164 180 178 182 187 191 192 188 188 194 195 190 195 196 196 217 216 228 230 225 227 231 253 264 270 267 263 268 271 274 228 194 196 173 165 176 179 173 176 195 192 171 171 172 171 167 167 169 171 174 176 180
340 337 335 333 330 329 326 324 322 320 316 312 308 304 301 298 297 296 293 290 289 287 284 285 286 283 281 281 284 288 273 273 302 252 212 202 187 183 188 188 193 200 201 201 199 200 198 198 203 198 202 235 233 247 217 199 232 228 241 261 271 268 266 268 268 265 225 194 194 177 181 185 181 169 168 185 169 164 166 166 167 166 168 172 174 176 178 181
339 338 336 334 331 329 325 323 322 320 318 313 309 305 303 300 297 294 290 286 285 284 284 283 281 279 275 272 258 256 268 261 287 277 215 211 202 186 195 196 196 202 206 208 205 204 204 208 209 204 227 264 244 251 224 207 241 238 242 255 258 264 269 268 269 266 232 187 188 185 190 185 175 167 164 173 164 163 162 162 166 167 170 174 177 179 180 183
340 339 338 336 334 330 326 323 321 319 316 311 309 307 306 305 300 294 286 281 280 282 283 282 280 275 269 260 230 235 261 255 262 273 200 206 208 197 201 200 200 203 206 209 208 209 212 218 214 206 231 257 248 263 253 239 250 259 258 260 257 260 266 265 267 261 242 188 193 183 169 175 174 182 184 167 165 166 162 162 168 170 174 177 178 181 182 185
341 339 338 337 335 333 329 326 322 320 315 310 308 309 312 309 301 290 282 278 277 279 280 282 278 269 267 255 241 241 258 258 236 199 172 181 200 207 210 209 212 213 214 217 215 217 218 219 215 204 211 231 247 264 274 266 261 267 265 264 268 266 262 259 262 257 242 194 192 167 118 176 188 210 184 167 166 167 164 164 170 173 177 178 179 182 184 187
341 339 338 337 336 335 332 329 325 321 316 311 311 315 316 308 298 289 282 279 276 276 278 279 275 268 260 251 251 251 251 250 241 225 200 201 214 213 216 219 223 227 230 233 229 228 225 221 217 214 218 228 252 258 289 304 298 283 267 245 271 305 275 246 249 256 247 192 180 160 138 204 205 214 179 168 166 163 163 167 171 175 178 179 181 184 187 189
341 340 339 337 337 336 333 331 327 324 317 314 317 322 317 305 299 294 287 281 275 275 275 271 269 264 248 251 262 266 257 248 245 237 219 225 231 216 218 223 227 232 237 243 240 234 230 227 223 223 229 233 252 279 298 311 307 287 265 246 250 272 275 254 237 245 249 198 175 170 214 208 211 205 175 170 168 164 165 170 173 176 179 181 182 185 189 191
341 341 339 338 337 335 335 333 329 326 318 317 323 325 317 308 307 303 293 284 277 274 271 264 258 250 253 264 271 275 265 248 239 230 221 229 229 215 214 216 222 229 235 239 234 228 227 225 220 222 233 235 245 275 301 308 299 275 246 268 265 220 267 283 262 205 223 205 173 176 232 213 215 190 174 173 171 167 167 171 175 178 180 183 184 186 190 193
342 340 339 339 337 335 335 335 332 327 320 321 327 327 320 314 314 310 300 291 285 275 264 255 247 238 259 279 278 268 256 246 237 227 222 227 224 215 210 210 220 230 234 234 227 228 233 223 216 217 224 228 225 233 291 298 289 291 215 245 252 225 270 295 297 213 204 195 176 185 198 212 216 176 176 176 173 170 168 172 176 179 183 184 186 188 189 192
343 341 340 339 337 335 335 336 335 328 322 325 331 330 320 319 323 320 330 9 343 303 264 237 228 240 252 264 271 256 249 250 251 240 225 220 217 215 210 210 221 228 231 234 233 236 232 212 206 218 216 208 170 167 239 258 250 280 236 246 246 228 260 275 306 282 195 176 186 193 181 199 181 165 176 178 175 173 171 175 178 181 184 186 188 189 190 192
343 342 341 340 339 336 336 338 336 329 325 330 339 335 310 317 335 298 173 13 353 338 270 208 164 221 259 252 252 249 257 258 241 239 230 215 211 212 209 208 213 221 226 234 239 234 225 209 194 205 205 198 187 175 213 234 216 230 222 246 275 252 260 247 276 308 174 176 190 187 189 208 171 161 176 180 178 176 178 179 180 182 185 187 189 190 192 194
343 341 341 340 339 337 337 339 337 333 329 330 344 336 301 318 321 231 245 319 317 286 261 209 177 200 274 258 250 252 263 255 236 231 223 210 205 204 205 206 209 213 209 207 234 217 205 202 192 205 211 203 203 200 219 239 224 222 210 212 241 252 263 241 253 280 196 195 202 191 197 192 167 170 178 181 181 182 183 181 181 184 186 188 191 193 194 197
342 340 340 339 338 336 336 340 338 336 335 338 348 353 359 355 338 261 311 307 292 274 271 253 228 240 260 262 262 269 273 265 261 238 222 221 203 194 197 201 204 209 195 170 210 198 185 197 216 210 214 205 208 213 218 236 243 241 234 236 241 247 266 252 248 278 232 189 219 207 196 186 176 179 180 179 181 184 184 184 186 187 188 190 192 195 196 199
341 339 339 338 337 334 334 338 336 336 345 350 355 23 40 17 3 320 321 308 294 281 270 265 253 249 257 260 260 269 282 282 263 226 210 222 203 187 191 192 189 203 197 182 187 178 181 214 228 206 202 197 202 211 208 227 240 244 240 252 261 238 260 267 248 273 259 175 241 216 183 198 187 180 179 176 180 187 187 187 189 190 191 193 194 196 198 202
340 338 338 337 336 334 334 337 335 336 353 351 359 45 35 11 353 323 319 296 291 288 273 270 262 254 257 260 258 262 271 276 258 229 206 200 198 187 182 185 186 191 185 177 177 177 201 226 223 192 181 186 211 216 204 225 235 243 237 243 266 240 265 284 256 246 232 186 246 209 181 215 198 180 179 179 185 191 192 191 190 190 191 194 197 197 199 201
338 337 336 335 334 333 333 337 335 341 356 347 5 40 10 355 342 327 316 279 286 286 269 263 257 250 251 252 251 247 240 238 245 234 214 191 192 189 177 179 189 180 172 185 191 190 212 229 202 174 171 186 225 236 212 241 244 238 232 225 256 238 182 274 273 296 263 217 217 184 180 219 190 186 189 190 192 192 195 197 194 192 192 195 198 198 198 198
336 335 334 332 332 330 331 339 338 342 349 344 349 9 354 342 337 336 326 284 278 280 266 262 254 247 246 246 241 224 218 222 227 226 213 191 184 185 182 179 174 178 191 197 202 207 225 227 171 166 176 185 216 237 221 240 252 247 238 223 248 244 199 234 284 348 320 283 217 128 121 100 167 191 206 200 200 198 198 200 201 201 199 199 199 199 199 198
335 334 332 329 329 328 329 337 337 336 346 353 256 334 337 331 334 342 335 294 277 275 272 264 245 245 243 234 225 211 210 221 223 221 213 199 188 178 180 181 174 194 198 189 201 220 233 216 163 171 191 190 208 232 219 211 241 262 246 228 241 249 231 245 314 359 338 304 294 131 153 265 193 194 205 198 200 207 203 200 205 207 205 206 204 202 201 201
333 332 330 327 327 326 327 335 335 335 346 348 300 319 321 322 330 339 338 305 293 262 235 231 217 233 223 199 193 185 188 234 228 221 216 208 198 184 172 176 180 199 187 175 205 225 218 190 167 178 194 196 208 228 218 196 219 257 244 234 248 242 226 247 278 333 284 272 276 177 185 253 214 198 205 196 198 205 202 203 209 207 206 208 207 205 203 202
334 332 329 325 327 329 329 331 328 333 341 327 316 321 319 317 319 326 351 346 298 208 157 188 200 192 183 180 172 160 141 224 216 218 213 206 197 192 191 174 177 192 165 148 223 211 170 179 188 191 190 198 211 222 210 182 206 245 237 255 274 255 225 231 206 215 237 260 288 254 177 226 232 206 202 195 201 207 203 206 210 209 209 209 209 208 205 204
335 332 329 323 325 329 327 324 323 330 332 320 320 323 320 314 307 316 90 319 287 168 146 192 193 170 169 170 171 171 180 143 151 218 210 199 188 188 199 194 177 177 165 169 213 198 161 182 195 193 197 211 212 213 192 178 217 244 222 238 264 259 242 215 185 218 236 250 273 244 175 210 274 238 203 194 198 205 207 210 209 209 210 210 211 211 208 207
336 333 330 323 322 325 322 322 326 327 320 316 318 319 322 313 309 60 130 259 282 303 122 162 160 151 148 160 183 201 242 144 106 204 194 193 191 186 205 202 177 164 182 193 211 202 171 192 194 189 204 216 204 203 188 190 221 235 214 244 267 272 257 202 183 212 219 215 246 238 188 204 265 257 193 191 199 204 208 211 210 209 210 210 211 212 211 209
336 334 331 325 325 325 322 327 332 324 312 311 314 320 334 321 55 99 203 237 287 281 111 107 47 93 137 145 204 231 250 293 343 152 172 185 190 193 214 191 174 157 191 212 217 217 212 197 193 190 209 207 188 198 201 206 219 208 185 240 268 281 288 301 167 165 199 234 239 233 199 189 247 255 186 188 200 201 204 210 213 212 212 212 213 213 212 210
335 333 330 328 330 330 328 333 339 325 309 308 313 321 335 350 90 157 217 254 307 269 59 59 26 30 97 174 239 242 250 291 347 142 162 173 181 194 199 169 170 156 192 230 225 222 238 214 197 197 206 199 183 201 213 212 215 207 169 191 244 286 305 309 307 132 221 242 234 229 211 191 228 250 207 199 199 198 201 205 208 211 211 212 214 214 212 211
335 331 328 326 331 337 339 341 340 321 304 302 308 313 344 72 235 211 241 328 340 307 18 15 356 356 311 280 265 219 226 264 232 163 170 170 177 194 193 181 174 166 202 222 214 207 222 226 235 223 206 196 185 200 217 214 207 205 187 158 181 249 263 246 246 226 238 246 229 212 205 205 232 236 206 203 199 199 204 206 207 207 208 211 213 213 212 211
336 332 325 325 334 344 348 349 344 315 296 284 279 309 92 182 229 213 237 282 10 40 18 349 323 312 278 294 279 204 192 230 230 199 187 181 182 197 202 201 182 176 192 200 186 172 226 239 229 231 221 197 188 186 203 213 201 198 193 173 182 202 212 222 233 254 251 258 247 197 180 221 261 240 203 201 200 201 204 209 211 209 207 210 212 211 210 210
339 335 324 325 338 339 342 352 347 319 274 223 205 121 140 211 241 214 223 258 336 32 17 342 319 301 257 248 251 185 181 231 208 186 192 184 187 202 205 204 195 185 125 139 182 184 209 246 216 211 204 181 194 202 193 178 182 205 191 168 195 201 192 204 206 226 248 263 264 196 169 202 223 225 202 195 201 203 204 209 212 212 212 212 212 209 208 209
340 336 325 329 340 337 346 350 344 321 238 199 160 173 201 213 251 289 236 298 336 4 348 327 309 314 327 276 278 26 25 273 206 188 192 185 193 200 199 201 196 183 143 172 217 183 208 241 232 214 197 171 196 209 181 154 187 211 162 162 211 197 171 213 210 189 203 265 257 212 209 215 217 248 218 195 202 204 205 209 210 214 216 214 212 208 208 210
340 337 331 336 345 350 349 345 336 313 225 203 158 208 230 222 212 247 358 356 337 334 334 328 338 16 344 308 327 16 14 353 322 230 207 190 204 202 198 203 193 191 185 188 210 152 197 239 229 191 210 202 202 195 173 175 187 177 159 192 209 173 174 224 238 212 192 264 256 205 238 270 277 277 247 199 203 204 206 209 209 214 213 208 207 208 209 211
343 339 335 345 17 350 343 338 326 282 218 209 195 220 257 265 258 279 16 8 340 331 343 351 353 355 343 330 338 9 2 348 8 4 277 206 221 207 206 214 197 198 197 193 222 190 178 256 239 180 216 229 209 197 196 188 172 148 189 197 159 140 205 205 218 237 231 251 265 217 228 246 222 254 256 189 200 210 210 210 212 214 208 203 206 208 210 212
342 336 334 359 12 339 333 329 315 241 194 212 240 250 277 258 316 329 320 351 343 322 351 353 270 288 18 352 315 354 358 345 10 6 323 250 302 347 257 233 209 209 204 197 218 220 181 251 268 197 206 223 199 196 234 221 202 202 195 172 145 178 217 187 184 222 215 238 271 278 253 233 202 224 224 192 202 210 211 213 215 215 206 204 208 208 211 213
340 335 329 350 349 334 327 322 299 196 174 210 230 249 280 254 291 295 298 322 324 266 301 229 231 334 0 339 309 333 347 319 337 353 325 293 310 36 24 355 305 301 249 211 207 204 178 218 259 218 196 198 181 183 211 229 228 229 159 166 178 178 193 192 186 193 192 226 259 278 264 237 217 207 189 195 208 206 207 210 213 217 211 208 209 210 211 212
343 335 310 339 349 337 328 323 222 177 182 237 208 248 296 288 287 286 294 309 296 222 306 275 306 330 317 319 313 315 323 295 306 312 277 329 351 67 29 5 334 327 313 265 221 205 185 201 240 260 206 194 192 187 199 209 215 215 193 193 204 191 183 201 199 171 169 190 209 235 253 250 240 205 183 191 206 206 205 206 209 215 212 210 211 211 211 211
345 328 298 341 354 347 344 352 163 176 253 226 238 267 279 286 287 283 287 299 309 259 247 260 277 273 276 309 311 324 344 309 311 302 217 325 7 55 13 360 337 319 327 331 265 227 220 195 215 243 231 205 212 201 200 204 203 203 205 202 203 189 138 179 219 216 169 188 186 200 249 260 247 203 188 192 202 207 206 206 212 216 212 212 214 213 212 211
345 294 307 342 358 356 357 13 144 351 316 295 326 313 308 302 294 291 291 320 350 295 246 245 259 270 282 314 336 0 1 314 299 306 228 22 60 75 2 357 349 333 339 356 306 314 328 221 210 232 231 215 221 213 204 208 206 202 206 202 195 180 146 180 217 217 201 226 174 167 253 263 237 194 191 195 200 209 212 205 209 221 216 215 216 215 214 213
325 298 315 347 5 360 2 12 356 14 0 337 339 332 334 331 330 344 347 3 4 334 314 323 321 3 26 33 5 358 352 335 31 28 5 11 56 60 13 360 354 351 0 1 329 348 350 286 218 248 259 255 254 253 243 213 200 203 212 199 189 195 192 197 203 182 201 219 150 182 255 261 248 199 196 214 211 208 218 211 209 223 224 222 222 218 216 215
317 306 318 355 7 5 13 8 6 10 339 341 343 335 344 354 351 355 355 343 336 315 321 327 353 5 1 359 5 14 5 352 78 40 17 336 3 29 17 1 353 357 5 352 340 345 342 304 278 251 246 252 262 264 262 224 198 208 215 203 203 204 198 197 169 152 219 211 166 188 240 249 278 230 189 225 231 207 221 217 212 221 226 228 229 223 219 216
325 315 319 349 358 18 48 15 8 1 340 344 339 335 349 350 345 347 328 309 323 343 326 312 326 321 308 8 7 9 23 352 23 15 358 331 336 13 13 357 347 343 340 342 344 329 268 249 268 200 218 231 229 230 225 200 199 231 216 209 210 205 199 197 176 185 227 216 169 187 223 252 291 265 188 205 221 213 233 228 217 223 227 230 231 228 224 219
328 313 311 340 348 10 25 10 13 2 347 348 336 332 345 333 328 339 328 313 359 3 339 298 314 310 327 36 6 330 29 22 358 342 317 327 334 355 2 347 331 333 342 348 351 337 249 226 263 228 228 242 254 274 250 182 188 216 218 216 216 212 205 197 195 202 197 195 206 204 186 209 270 262 226 240 237 223 234 233 218 223 226 228 230 230 228 222
318 292 314 339 341 345 351 6 15 1 344 345 330 303 325 324 320 339 347 356 0 359 334 307 7 19 18 28 3 317 4 349 316 299 296 329 320 311 342 334 322 348 352 352 355 350 333 316 292 269 277 273 276 290 280 235 212 212 211 216 220 217 208 205 214 203 155 176 229 212 171 193 240 249 247 253 246 236 237 233 224 226 230 230 229 229 227 224
287 289 314 330 335 340 339 339 344 341 333 334 321 287 316 324 327 343 357 351 347 1 17 347 13 20 1 7 25 314 341 332 297 321 344 339 323 324 340 323 329 3 359 350 357 2 299 260 287 309 314 307 296 290 283 265 242 220 206 211 216 215 210 214 219 197 166 198 229 203 183 200 224 233 234 237 237 237 236 240 247 247 242 239 234 229 226 224
285 287 305 324 328 301 297 301 313 323 324 324 312 296 318 328 337 342 349 346 334 348 15 346 345 355 346 341 349 283 338 328 301 353 352 324 323 333 334 307 350 9 360 340 343 357 307 269 308 320 316 311 304 295 285 269 255 243 221 209 209 214 214 217 218 202 196 215 221 193 194 207 213 214 216 225 234 237 230 236 256 256 243 239 235 228 226 225
286 286 300 318 305 283 281 286 305 318 315 312 299 293 319 329 338 340 336 330 307 316 351 352 331 337 331 322 321 283 267 266 265 286 308 313 329 337 314 305 355 359 349 326 327 359 5 300 309 320 317 306 303 313 321 302 263 250 245 223 211 213 216 219 216 203 205 223 224 200 199 220 240 228 219 229 238 247 246 230 243 248 241 235 233 229 229 227
286 290 297 300 290 282 280 283 302 303 296 303 304 316 331 327 329 334 315 290 262 271 329 339 327 328 319 312 304 276 277 273 257 267 272 267 278 280 273 298 324 334 337 314 302 337 10 298 303 325 325 297 305 336 334 323 303 258 246 236 220 212 214 220 214 196 193 204 215 219 212 230 249 236 234 249 249 251 252 231 234 245 243 231 230 235 237 234
292 296 300 300 292 292 291 284 281 278 288 320 322 321 321 309 317 336 317 292 285 305 324 322 311 317 313 298 285 284 296 297 283 282 282 269 261 262 261 265 271 272 272 289 291 264 219 273 302 324 318 288 301 320 319 319 312 257 235 227 223 219 214 216 216 210 199 186 196 221 221 222 228 211 210 243 244 238 245 242 241 254 255 239 234 240 244 242
Height
1519 1518 1517 1515 1514 1513 1511 1510 1509 1508 1507 1505 1504 1503 1502 1501 1500 1499 1497 1496 1496 1494 1494 1493 1493 1492 1491 1490 1488 1487 1486 1486 1485 1484 1480 1476 1477 1479 1480 1481 1483 1484 1485 1487 1487 1488 1490 1492 1494 1497 1499 1501 1501 1501 1502 1503 1503 1506 1508 1514 1514 1507 1501 1493 1488 1486 1485 1488 1485 1485 1486 1487 1493 1496 1496 1499 1500 1498 1502 1504 1505 1506 1506 1508 1509 1511 1514 1516
1518 1517 1515 1514 1513 1511 1510 1509 1507 1506 1505 1504 1503 1502 1500 1499 1498 1497 1496 1495 1494 1493 1492 1492 1491 1490 1489 1488 1486 1485 1484 1483 1482 1479 1475 1473 1474 1475 1476 1478 1480 1482 1483 1485 1485 1486 1487 1488 1492 1495 1498 1499 1499 1500 1501 1501 1501 1503 1504 1509 1506 1497 1490 1481 1480 1479 1480 1485 1485 1484 1485 1484 1488 1491 1493 1498 1501 1501 1502 1505 1506 1507 1507 1509 1511 1512 1515 1517
1517 1516 1514 1513 1511 1510 1509 1507 1506 1505 1503 1502 1501 1500 1499 1498 1496 1495 1494 1493 1492 1491 1490 1490 1490 1489 1488 1487 1485 1484 1483 1481 1478 1474 1472 1471 1471 1471 1472 1475 1476 1479 1481 1483 1485 1487 1487 1488 1492 1494 1497 1498 1498 1499 1500 1499 1498 1498 1501 1506 1497 1485 1482 1477 1477 1479 1479 1483 1484 1486 1486 1485 1486 1488 1491 1495 1500 1501 1501 1501 1503 1505 1506 1508 1510 1513 1515 1517
1516 1515 1513 1511 1510 1508 1507 1506 1504 1503 1502 1501 1499 1498 1497 1496 1495 1494 1492 1491 1490 1489 1488 1488 1488 1487 1486 1485 1484 1483 1482 1480 1474 1471 1471 1470 1469 1468 1470 1471 1474 1477 1480 1483 1485 1488 1490 1491 1493 1494 1497 1498 1497 1499 1498 1496 1496 1495 1497 1497 1486 1480 1482 1478 1477 1480 1480 1481 1483 1486 1487 1487 1487 1488 1490 1492 1500 1504 1500 1496 1495 1498 1501 1504 1508 1512 1514 1516
1515 1514 1512 1510 1509 1507 1506 1504 1503 1501 1500 1499 1497 1496 1495 1494 1493 1492 1491 1489 1488 1487 1486 1486 1487 1486 1484 1483 1483 1482 1483 1482 1472 1469 1471 1469 1468 1467 1468 1470 1473 1476 1479 1482 1484 1487 1489 1491 1493 1495 1497 1496 1497 1498 1493 1491 1493 1492 1488 1484 1480 1481 1483 1476 1477 1481 1480 1480 1483 1484 1485 1486 1486 1488 1488 1488 1493 1495 1492 1492 1493 1494 1497 1500 1504 1509 1513 1515
1514 1512 1511 1509 1507 1506 1504 1503 1501 1500 1498 1496 1495 1494 1493 1492 1490 1490 1489 1487 1486 1485 1484 1484 1485 1484 1483 1482 1482 1481 1483 1481 1471 1469 1471 1469 1469 1467 1468 1471 1473 1477 1479 1481 1483 1485 1487 1490 1492 1493 1493 1493 1495 1493 1488 1488 1492 1492 1485 1479 1480 1482 1480 1475 1477 1481 1480 1480 1481 1482 1482 1483 1485 1487 1486 1484 1483 1482 1484 1490 1494 1495 1497 1499 1502 1506 1510 1513
1513 1511 1510 1508 1506 1504 1503 1501 1499 1498 1496 1495 1493 1491 1490 1489 1488 1487 1486 1485 1484 1483 1482 1482 1483 1482 1481 1481 1480 1480 1481 1475 1468 1470 1470 1469 1470 1469 1470 1472 1475 1477 1478 1480 1481 1483 1486 1488 1489 1488 1491 1492 1491 1488 1486 1488 1489 1491 1485 1478 1478 1480 1477 1474 1474 1479 1481 1482 1480 1481 1482 1482 1483 1485 1486 1485 1483 1482 1486 1490 1494 1497 1499 1501 1503 1505 1508 1511
1512 1510 1508 1506 1505 1503 1501 1499 1498 1496 1494 1493 1491 1489 1488 1487 1486 1485 1484 1483 1482 1481 1481 1480 1481 1480 1480 1479 1478 1478 1476 1469 1467 1468 1468 1469 1470 1470 1472 1473 1475 1476 1477 1479 1480 1482 1484 1486 1486 1487 1490 1489 1487 1484 1486 1489 1489 1488 1484 1478 1478 1478 1475 1473 1473 1476 1480 1482 1481 1483 1481 1480 1479 1480 1483 1485 1484 1484 1487 1491 1494 1498 1501 1502 1503 1505 1508 1510
1512 1509 1507 1505 1503 1501 1499 1497 1496 1494 1492 1491 1489 1487 1486 1484 1483 1482 1481 1480 1479 1479 1478 1478 1479 1478 1479 1478 1478 1477 1469 1465 1466 1467 1467 1468 1469 1470 1472 1472 1474 1475 1476 1478 1479 1481 1482 1483 1484 1485 1487 1486 1486 1484 1485 1491 1489 1484 1480 1478 1477 1476 1473 1473 1472 1472 1477 1479 1481 1483 1481 1480 1480 1481 1484 1485 1484 1485 1487 1491 1494 1497 1500 1502 1504 1505 1507 1509
1510 1508 1506 1504 1502 1500 1498 1496 1494 1492 1490 1488 1486 1485 1484 1482 1481 1480 1478 1477 1477 1476 1476 1477 1476 1476 1477 1476 1477 1474 1464 1463 1466 1465 1466 1467 1468 1470 1471 1472 1473 1474 1475 1477 1478 1480 1480 1482 1483 1485 1487 1486 1485 1484 1484 1488 1486 1480 1479 1478 1476 1474 1471 1470 1470 1470 1474 1476 1477 1481 1481 1482 1481 1483 1487 1485 1484 1486 1487 1491 1493 1496 1498 1501 1503 1505 1506 1508
1508 1507 1505 1503 1501 1498 1496 1494 1492 1490 1488 1485 1484 1482 1481 1480 1478 1477 1475 1474 1474 1474 1474 1474 1474 1475 1474 1474 1474 1468 1461 1463 1464 1464 1465 1465 1467 1469 1469 1471 1472 1473 1474 1475 1476 1478 1479 1481 1483 1488 1488 1485 1483 1483 1483 1483 1482 1480 1479 1479 1475 1474 1471 1468 1468 1467 1471 1473 1472 1475 1480 1483 1483 1482 1482 1480 1482 1484 1486 1489 1492 1495 1497 1499 1502 1504 1506 1508
1507 1505 1503 1501 1499 1496 1494 1492 1490 1488 1485 1483 1481 1480 1479 1477 1475 1473 1472 1471 1471 1472 1471 1471 1472 1471 1472 1472 1466 1460 1460 1462 1462 1463 1463 1464 1466 1468 1469 1470 1471 1472 1473 1474 1475 1477 1479 1480 1483 1486 1484 1483 1483 1484 1482 1480 1481 1479 1479 1482 1478 1475 1472 1467 1465 1464 1467 1471 1469 1474 1486 1490 1485 1480 1477 1477 1480 1481 1484 1488 1490 1493 1497 1499 1502 1504 1506 1507
1505 1503 1501 1499 1497 1494 1492 1490 1487 1485 1483 1481 1479 1478 1476 1474 1472 1471 1469 1469 1468 1469 1469 1469 1469 1469 1470 1465 1454 1454 1460 1461 1461 1461 1461 1463 1465 1466 1468 1469 1470 1472 1472 1473 1475 1476 1478 1479 1481 1482 1481 1482 1482 1482 1480 1477 1480 1480 1479 1481 1481 1482 1476 1465 1463 1462 1464 1469 1466 1474 1493 1494 1483 1477 1476 1477 1479 1481 1485 1487 1489 1492 1495 1498 1501 1503 1504 1506
1504 1502 1499 1497 1495 1493 1490 1488 1485 1483 1481 1478 1477 1476 1473 1471 1469 1468 1467 1466 1466 1466 1466 1467 1466 1467 1467 1457 1449 1453 1457 1458 1458 1458 1460 1462 1463 1465 1466 1468 1469 1470 1472 1473 1474 1476 1477 1479 1480 1481 1481 1481 1480 1480 1480 1478 1479 1480 1480 1481 1483 1489 1479 1463 1461 1463 1465 1467 1463 1472 1490 1489 1480 1476 1475 1477 1477 1479 1483 1486 1489 1491 1494 1497 1499 1501 1503 1504
1502 1500 1498 1495 1493 1491 1488 1486 1483 1481 1479 1476 1475 1473 1470 1468 1467 1466 1465 1464 1464 1464 1463 1464 1464 1465 1463 1452 1448 1451 1452 1453 1454 1455 1458 1460 1461 1463 1463 1466 1467 1468 1471 1472 1473 1475 1476 1478 1479 1479 1479 1479 1481 1484 1484 1483 1480 1480 1486 1488 1485 1488 1480 1464 1459 1461 1465 1465 1461 1472 1486 1483 1476 1474 1474 1477 1478 1477 1480 1484 1487 1490 1492 1495 1497 1499 1501 1503
1501 1499 1497 1494 1492 1489 1487 1484 1482 1479 1477 1474 1473 1471 1468 1467 1465 1464 1463 1462 1462 1462 1461 1462 1462 1464 1461 1451 1447 1448 1447 1448 1450 1453 1455 1456 1458 1460 1462 1465 1465 1467 1469 1470 1472 1474 1476 1476 1477 1477 1477 1478 1481 1486 1489 1491 1487 1482 1487 1490 1486 1485 1482 1472 1460 1455 1458 1462 1462 1468 1479 1479 1473 1473 1475 1477 1478 1478 1480 1483 1485 1488 1490 1493 1495 1497 1499 1502
1500 1498 1496 1494 1491 1488 1486 1483 1480 1477 1475 1473 1471 1469 1467 1465 1464 1464 1462 1462 1461 1460 1461 1461 1461 1463 1457 1447 1445 1446 1445 1447 1448 1450 1451 1452 1455 1457 1461 1463 1464 1466 1467 1469 1471 1473 1475 1475 1475 1476 1475 1476 1479 1485 1495 1499 1494 1488 1486 1487 1485 1483 1482 1478 1466 1455 1454 1460 1465 1466 1471 1473 1469 1469 1474 1476 1477 1479 1480 1482 1483 1486 1489 1491 1493 1495 1497 1499
1499 1497 1495 1493 1490 1487 1484 1482 1479 1476 1474 1472 1470 1468 1466 1465 1464 1463 1461 1461 1460 1460 1461 1459 1462 1463 1452 1442 1443 1443 1444 1446 1446 1447 1448 1449 1452 1455 1459 1460 1462 1464 1465 1468 1469 1471 1474 1472 1473 1475 1474 1475 1477 1483 1493 1493 1488 1488 1487 1486 1485 1482 1480 1479 1472 1461 1457 1461 1466 1469 1472 1471 1469 1469 1471 1474 1475 1477 1478 1479 1481 1484 1487 1489 1491 1493 1494 1496
1498 1496 1494 1491 1489 1486 1483 1481 1478 1475 1472 1471 1470 1467 1465 1464 1463 1462 1460 1460 1460 1459 1458 1456 1457 1456 1446 1438 1441 1442 1443 1445 1444 1445 1445 1446 1449 1452 1455 1458 1460 1462 1465 1468 1468 1467 1469 1471 1473 1474 1473 1474 1474 1476 1481 1480 1479 1481 1482 1483 1484 1483 1479 1475 1470 1461 1459 1465 1468 1469 1471 1471 1471 1471 1471 1473 1475 1476 1478 1479 1481 1484 1485 1488 1489 1490 1491 1493
1497 1495 1492 1490 1487 1485 1482 1480 1477 1474 1472 1470 1469 1466 1465 1465 1463 1461 1459 1457 1457 1455 1452 1451 1450 1446 1440 1437 1440 1441 1441 1442 1443 1443 1444 1445 1447 1449 1453 1456 1458 1460 1462 1465 1466 1463 1466 1472 1471 1470 1470 1470 1470 1471 1473 1474 1476 1477 1479 1481 1481 1482 1478 1470 1468 1460 1456 1467 1469 1464 1468 1469 1469 1469 1468 1471 1474 1476 1479 1480 1481 1482 1483 1485 1486 1487 1488 1489
1496 1493 1491 1488 1486 1483 1481 1479 1476 1474 1472 1471 1469 1468 1469 1470 1470 1467 1461 1452 1449 1451 1448 1445 1445 1441 1436 1435 1437 1440 1441 1440 1439 1440 1442 1443 1444 1448 1450 1453 1456 1459 1459 1460 1463 1462 1464 1468 1465 1464 1466 1466 1468 1469 1471 1473 1474 1476 1478 1480 1479 1480 1475 1466 1466 1462 1456 1467 1469 1463 1468 1469 1465 1466 1466 1469 1472 1473 1474 1476 1477 1478 1480 1482 1483 1484 1485 1485
1495 1492 1489 1487 1484 1481 1480 1478 1475 1473 1473 1472 1471 1470 1471 1474 1474 1472 1467 1453 1442 1444 1443 1438 1439 1435 1430 1432 1434 1440 1443 1440 1437 1435 1439 1442 1442 1444 1446 1450 1454 1456 1457 1458 1462 1465 1466 1462 1459 1461 1462 1464 1466 1467 1470 1472 1473 1475 1476 1479 1479 1475 1472 1466 1462 1460 1457 1465 1468 1464 1469 1469 1463 1463 1464 1464 1465 1466 1468 1468 1470 1472 1476 1479 1480 1481 1482 1484
1494 1491 1488 1485 1482 1480 1478 1476 1474 1472 1472 1472 1471 1471 1472 1472 1472 1470 1469 1458 1439 1434 1435 1431 1429 1425 1424 1426 1429 1436 1439 1436 1435 1432 1434 1438 1438 1440 1443 1446 1451 1454 1456 1457 1460 1465 1465 1458 1454 1458 1460 1463 1466 1466 1469 1471 1472 1474 1474 1478 1475 1469 1473 1472 1464 1460 1457 1460 1463 1463 1468 1469 1467 1467 1465 1462 1460 1462 1465 1467 1468 1469 1470 1471 1472 1474 1477 1480
1493 1490 1488 1484 1481 1478 1476 1476 1473 1472 1472 1471 1470 1471 1471 1471 1470 1467 1465 1457 1439 1427 1424 1422 1421 1418 1416 1420 1425 1429 1430 1430 1431 1428 1429 1434 1434 1438 1439 1441 1448 1453 1453 1453 1455 1458 1457 1451 1449 1454 1458 1462 1466 1466 1468 1472 1473 1471 1470 1473 1470 1465 1471 1471 1466 1462 1459 1458 1457 1462 1473 1474 1472 1475 1471 1465 1464 1465 1466 1469 1471 1470 1469 1469 1470 1472 1473 1474
1493 1490 1487 1482 1480 1476 1475 1475 1473 1473 1471 1470 1470 1470 1470 1470 1468 1467 1463 1457 1443 1426 1419 1417 1416 1412 1410 1417 1421 1422 1425 1425 1422 1422 1425 1428 1430 1433 1435 1438 1444 1450 1450 1451 1455 1455 1452 1449 1448 1454 1457 1460 1464 1466 1466 1470 1474 1471 1465 1463 1462 1464 1468 1468 1467 1467 1469 1470 1458 1461 1483 1484 1472 1473 1471 1467 1468 1468 1467 1468 1469 1469 1470 1471 1472 1471 1472 1473
1492 1490 1486 1482 1479 1475 1473 1473 1472 1472 1470 1470 1470 1468 1470 1468 1467 1467 1464 1463 1448 1423 1415 1415 1412 1409 1407 1413 1417 1420 1427 1420 1412 1418 1423 1425 1428 1429 1434 1436 1438 1443 1446 1449 1453 1451 1447 1447 1448 1452 1456 1459 1463 1464 1461 1464 1474 1472 1458 1453 1458 1462 1466 1467 1468 1472 1477 1477 1460 1457 1479 1484 1474 1471 1469 1466 1467 1465 1464 1466 1465 1466 1468 1468 1469 1469 1469 1471
1491 1489 1486 1482 1479 1475 1472 1472 1472 1471 1470 1470 1468 1467 1469 1465 1467 1465 1463 1468 1448 1415 1411 1413 1410 1409 1406 1409 1412 1418 1424 1413 1408 1415 1416 1421 1426 1427 1434 1435 1435 1439 1439 1447 1455 1445 1440 1446 1449 1450 1454 1458 1460 1459 1455 1459 1471 1465 1451 1452 1457 1459 1465 1466 1468 1474 1473 1470 1464 1458 1467 1479 1478 1470 1462 1462 1466 1465 1464 1464 1462 1463 1464 1464 1465 1465 1465 1466
1490 1488 1485 1482 1480 1478 1474 1472 1472 1470 1470 1469 1466 1467 1466 1463 1467 1463 1467 1472 1439 1405 1407 1409 1407 1408 1407 1410 1410 1411 1411 1406 1409 1411 1409 1419 1424 1424 1431 1431 1432 1436 1433 1443 1452 1440 1435 1444 1446 1447 1453 1454 1452 1451 1451 1457 1462 1454 1448 1453 1454 1456 1462 1462 1467 1472 1468 1471 1474 1464 1463 1477 1478 1463 1456 1459 1464 1467 1464 1460 1459 1458 1458 1459 1461 1461 1461 1462
1489 1486 1484 1480 1478 1478 1474 1472 1472 1470 1469 1467 1466 1466 1463 1465 1464 1460 1472 1469 1426 1400 1406 1406 1407 1409 1408 1412 1412 1408 1406 1405 1408 1407 1408 1418 1421 1422 1427 1426 1429 1434 1432 1435 1441 1437 1433 1436 1437 1442 1448 1448 1446 1446 1447 1452 1452 1447 1449 1453 1452 1454 1458 1461 1467 1469 1469 1478 1479 1465 1461 1475 1474 1459 1457 1463 1463 1463 1459 1454 1452 1450 1452 1454 1455 1457 1458 1459
1487 1485 1482 1479 1476 1474 1472 1471 1470 1468 1466 1465 1465 1464 1463 1464 1462 1467 1479 1459 1419 1405 1406 1405 1411 1411 1410 1415 1414 1411 1409 1407 1405 1405 1409 1414 1418 1421 1423 1425 1428 1432 1434 1434 1435 1434 1430 1430 1432 1436 1439 1439 1441 1443 1443 1445 1445 1446 1452 1456 1457 1457 1456 1460 1464 1465 1475 1480 1470 1459 1456 1467 1472 1457 1451 1456 1452 1450 1451 1450 1449 1447 1448 1450 1451 1452 1453 1455
1485 1483 1481 1478 1476 1473 1470 1469 1468 1466 1465 1464 1464 1463 1463 1463 1464 1472 1469 1438 1415 1411 1407 1410 1416 1414 1415 1417 1416 1414 1411 1409 1406 1406 1412 1414 1419 1423 1423 1427 1430 1434 1440 1438 1435 1433 1432 1433 1432 1430 1430 1432 1438 1442 1441 1441 1442 1448 1455 1459 1466 1467 1463 1465 1465 1467 1480 1477 1460 1452 1452 1461 1468 1453 1442 1441 1437 1437 1441 1443 1443 1442 1443 1444 1444 1446 1448 1450
1484 1481 1479 1477 1476 1474 1471 1469 1467 1465 1464 1463 1464 1463 1463 1466 1467 1465 1447 1424 1420 1420 1416 1420 1420 1416 1418 1416 1415 1414 1412 1412 1407 1406 1410 1412 1418 1420 1420 1424 1427 1437 1446 1440 1436 1437 1435 1433 1430 1428 1427 1427 1436 1444 1444 1443 1443 1450 1456 1461 1474 1480 1478 1480 1477 1475 1476 1467 1451 1447 1451 1459 1456 1440 1432 1432 1429 1429 1431 1431 1432 1432 1434 1436 1437 1439 1443 1446
1482 1479 1476 1475 1474 1473 1471 1468 1466 1465 1463 1462 1464 1462 1464 1470 1464 1449 1436 1426 1426 1425 1423 1425 1421 1418 1418 1416 1414 1410 1410 1412 1408 1407 1407 1409 1415 1416 1416 1417 1417 1428 1437 1435 1439 1443 1441 1435 1429 1430 1428 1423 1430 1440 1445 1445 1443 1448 1453 1460 1473 1482 1489 1493 1486 1478 1472 1460 1448 1445 1451 1457 1448 1430 1422 1423 1422 1420 1421 1422 1423 1424 1426 1427 1427 1432 1437 1441
1481 1478 1475 1473 1473 1472 1470 1468 1465 1463 1463 1462 1462 1463 1467 1469 1454 1439 1435 1430 1426 1426 1427 1426 1423 1418 1415 1414 1411 1406 1409 1410 1405 1408 1409 1410 1416 1417 1417 1418 1416 1420 1427 1433 1439 1441 1447 1444 1429 1426 1425 1420 1424 1428 1432 1437 1440 1443 1443 1451 1463 1467 1476 1484 1480 1476 1471 1459 1451 1451 1454 1452 1442 1424 1412 1411 1412 1411 1413 1415 1417 1419 1420 1420 1423 1429 1434 1437
1480 1476 1473 1471 1471 1470 1468 1467 1464 1463 1463 1461 1462 1465 1464 1459 1448 1440 1440 1436 1431 1431 1430 1426 1423 1420 1416 1413 1409 1407 1411 1410 1404 1407 1410 1411 1414 1414 1414 1415 1415 1419 1425 1435 1436 1433 1442 1438 1418 1415 1416 1415 1420 1420 1420 1432 1440 1439 1437 1447 1454 1448 1453 1463 1463 1460 1459 1458 1453 1451 1448 1437 1425 1414 1404 1404 1407 1406 1409 1410 1413 1417 1417 1420 1425 1428 1431 1433
1478 1474 1471 1469 1468 1468 1466 1465 1464 1463 1463 1461 1463 1464 1457 1448 1444 1443 1442 1440 1438 1437 1434 1428 1424 1424 1424 1418 1413 1413 1413 1411 1409 1409 1409 1410 1411 1410 1411 1411 1411 1414 1418 1427 1430 1429 1438 1431 1412 1413 1415 1411 1415 1416 1416 1426 1435 1436 1439 1443 1438 1433 1441 1455 1460 1452 1453 1464 1456 1443 1438 1429 1422 1415 1404 1404 1407 1406 1408 1409 1410 1412 1414 1419 1423 1424 1427 1428
1477 1472 1469 1467 1467 1466 1466 1465 1463 1462 1462 1462 1463 1459 1451 1445 1443 1442 1442 1441 1442 1440 1439 1439 1432 1429 1431 1427 1422 1421 1419 1416 1415 1415 1414 1413 1411 1409 1409 1408 1407 1409 1411 1417 1421 1421 1427 1426 1412 1411 1416 1409 1407 1413 1413 1414 1421 1431 1437 1432 1428 1434 1439 1447 1459 1457 1459 1468 1455 1438 1436 1432 1431 1424 1409 1407 1411 1409 1408 1408 1408 1409 1412 1416 1417 1418 1420 1421
1477 1472 1468 1468 1467 1466 1464 1463 1462 1460 1461 1463 1462 1455 1450 1447 1442 1441 1441 1441 1442 1440 1442 1446 1438 1430 1435 1438 1431 1426 1425 1425 1423 1424 1422 1416 1412 1412 1413 1411 1406 1405 1404 1407 1414 1413 1417 1425 1415 1406 1410 1407 1403 1414 1420 1414 1411 1418 1422 1419 1426 1443 1446 1445 1454 1458 1462 1467 1453 1440 1436 1430 1428 1422 1411 1411 1412 1409 1408 1408 1408 1408 1410 1411 1411 1413 1414 1416
1479 1473 1469 1468 1468 1465 1462 1461 1459 1459 1460 1462 1462 1456 1450 1447 1443 1441 1440 1441 1442 1441 1442 1443 1438 1433 1436 1438 1434 1429 1429 1430 1428 1430 1427 1418 1416 1420 1423 1421 1414 1410 1406 1403 1407 1407 1411 1422 1419 1404 1403 1405 1405 1414 1423 1420 1413 1412 1416 1417 1419 1429 1435 1438 1442 1443 1452 1461 1455 1448 1440 1426 1417 1411 1406 1408 1407 1404 1405 1405 1406 1406 1405 1406 1407 1408 1410 1412
1480 1475 1469 1468 1468 1464 1460 1459 1458 1459 1460 1460 1459 1455 1450 1447 1444 1442 1441 1442 1441 1441 1442 1440 1438 1439 1437 1434 1434 1431 1429 1429 1428 1430 1428 1420 1419 1424 1427 1426 1422 1416 1409 1403 1402 1403 1407 1416 1419 1409 1402 1405 1409 1410 1412 1415 1415 1415 1420 1422 1419 1419 1421 1428 1432 1429 1436 1448 1451 1452 1443 1420 1406 1402 1399 1399 1399 1398 1399 1399 1399 1398 1398 1400 1401 1402 1404 1406
1481 1477 1470 1468 1467 1463 1459 1457 1458 1459 1459 1457 1455 1453 1450 1448 1445 1442 1441 1441 1440 1440 1440 1439 1439 1439 1437 1436 1435 1432 1432 1432 1429 1429 1428 1424 1424 1429 1430 1429 1427 1420 1411 1408 1408 1407 1408 1412 1415 1411 1406 1407 1406 1398 1397 1402 1405 1410 1415 1416 1417 1418 1421 1433 1438 1427 1424 1431 1434 1440 1438 1414 1397 1395 1392 1391 1393 1392 1391 1393 1393 1391 1391 1394 1395 1396 1399 1400
1483 1478 1471 1469 1468 1463 1460 1459 1459 1459 1458 1457 1456 1453 1450 1448 1446 1444 1442 1441 1441 1439 1438 1437 1437 1437 1437 1437 1436 1435 1436 1435 1431 1428 1428 1428 1430 1435 1435 1430 1428 1422 1416 1417 1416 1410 1407 1407 1408 1406 1401 1400 1397 1390 1389 1392 1394 1400 1405 1407 1410 1414 1418 1429 1436 1427 1422 1424 1422 1427 1430 1410 1390 1388 1387 1385 1386 1386 1386 1387 1388 1388 1388 1389 1390 1391 1394 1396
1483 1477 1470 1470 1469 1465 1463 1463 1462 1462 1461 1459 1456 1453 1450 1449 1447 1446 1443 1443 1442 1441 1439 1438 1437 1437 1438 1438 1437 1438 1437 1435 1432 1431 1432 1432 1432 1435 1434 1430 1427 1423 1420 1422 1420 1413 1409 1407 1408 1407 1399 1394 1391 1388 1386 1387 1391 1398 1400 1399 1402 1407 1408 1411 1416 1418 1419 1420 1421 1429 1430 1408 1387 1383 1383 1383 1383 1382 1383 1384 1385 1386 1385 1386 1388 1388 1391 1393
1481 1475 1470 1470 1469 1466 1467 1467 1467 1467 1464 1461 1457 1454 1451 1449 1449 1448 1446 1445 1444 1443 1442 1440 1439 1440 1439 1438 1438 1439 1440 1439 1436 1434 1436 1436 1434 1434 1433 1431 1429 1427 1426 1429 1426 1423 1422 1415 1412 1416 1414 1408 1405 1401 1396 1392 1393 1396 1396 1394 1394 1397 1401 1404 1409 1414 1416 1414 1416 1425 1426 1406 1388 1383 1382 1383 1383 1382 1381 1381 1382 1383 1384 1384 1385 1386 1389 1391
1481 1476 1472 1471 1470 1468 1469 1470 1471 1470 1466 1463 1461 1457 1454 1451 1450 1449 1448 1446 1444 1443 1443 1442 1440 1440 1439 1438 1439 1440 1440 1441 1440 1438 1438 1438 1435 1434 1433 1432 1431 1430 1429 1429 1426 1425 1427 1421 1415 1418 1421 1420 1416 1409 1401 1397 1396 1394 1391 1390 1390 1391 1395 1402 1408 1414 1417 1414 1410 1413 1414 1401 1389 1384 1381 1382 1384 1382 1380 1380 1381 1381 1381 1382 1383 1384 1387 1388
1484 1480 1475 1472 1470 1469 1470 1470 1471 1470 1468 1467 1464 1460 1457 1455 1451 1449 1448 1446 1445 1444 1444 1442 1440 1440 1440 1441 1442 1443 1441 1442 1444 1443 1441 1440 1437 1435 1435 1434 1432 1431 1429 1426 1424 1422 1422 1418 1413 1413 1415 1414 1411 1403 1392 1388 1391 1391 1388 1387 1387 1387 1388 1395 1403 1407 1410 1412 1408 1402 1401 1399 1392 1387 1383 1382 1382 1380 1378 1378 1379 1378 1378 1379 1379 1380 1382 1385
1486 1484 1480 1477 1475 1472 1470 1470 1470 1471 1470 1470 1468 1463 1460 1457 1453 1450 1448 1447 1447 1446 1444 1442 1441 1442 1444 1445 1445 1445 1444 1444 1445 1444 1442 1441 1439 1437 1437 1434 1432 1431 1428 1425 1424 1422 1424 1423 1415 1411 1411 1410 1408 1404 1394 1386 1383 1382 1384 1386 1385 1384 1386 1390 1395 1394 1397 1407 1407 1397 1395 1398 1394 1387 1383 1382 1380 1378 1376 1374 1374 1374 1375 1375 1376 1376 1378 1381
1486 1484 1481 1482 1481 1478 1475 1472 1472 1473 1472 1471 1469 1464 1461 1459 1456 1454 1452 1449 1448 1447 1446 1445 1445 1446 1447 1447 1447 1447 1446 1445 1444 1442 1442 1442 1440 1438 1437 1434 1432 1431 1428 1427 1426 1425 1430 1428 1417 1411 1411 1406 1402 1400 1394 1387 1381 1376 1378 1380 1380 1382 1384 1384 1386 1387 1388 1395 1397 1392 1391 1394 1391 1384 1380 1378 1376 1374 1373 1372 1372 1372 1372 1372 1373 1374 1375 1376
1485 1484 1482 1482 1482 1481 1478 1476 1474 1474 1472 1470 1468 1465 1463 1462 1459 1457 1455 1454 1451 1449 1449 1450 1449 1449 1449 1448 1448 1449 1448 1447 1445 1444 1444 1444 1442 1441 1439 1436 1433 1431 1430 1429 1427 1427 1430 1426 1417 1414 1412 1405 1400 1395 1389 1386 1382 1376 1373 1373 1374 1376 1377 1377 1379 1382 1382 1382 1383 1386 1388 1387 1383 1378 1373 1371 1370 1369 1370 1372 1372 1370 1370 1370 1370 1371 1372 1372
1485 1484 1482 1482 1481 1479 1478 1476 1475 1474 1472 1470 1469 1466 1465 1464 1463 1460 1458 1458 1457 1452 1450 1452 1452 1450 1450 1449 1448 1448 1446 1446 1446 1444 1444 1445 1444 1443 1441 1439 1435 1434 1434 1433 1429 1428 1431 1428 1419 1416 1416 1409 1398 1392 1388 1386 1382 1378 1374 1370 1368 1370 1370 1370 1373 1377 1382 1383 1382 1384 1388 1385 1378 1371 1368 1366 1365 1367 1369 1370 1370 1368 1367 1368 1368 1369 1368 1369
1484 1483 1483 1483 1480 1477 1477 1475 1475 1475 1473 1470 1468 1467 1465 1465 1464 1463 1460 1457 1457 1455 1452 1453 1452 1450 1449 1449 1448 1446 1443 1443 1443 1442 1441 1443 1443 1442 1441 1438 1437 1438 1437 1435 1432 1430 1432 1431 1422 1420 1423 1415 1399 1395 1394 1388 1383 1379 1374 1368 1365 1365 1365 1364 1366 1369 1375 1381 1383 1384 1386 1383 1374 1367 1367 1366 1365 1368 1368 1366 1367 1366 1365 1365 1366 1366 1366 1366
1483 1482 1482 1483 1480 1476 1476 1475 1474 1475 1473 1470 1468 1467 1466 1465 1463 1464 1462 1456 1453 1454 1453 1452 1451 1450 1450 1448 1446 1443 1442 1441 1440 1439 1438 1439 1438 1438 1438 1437 1437 1439 1437 1435 1434 1430 1431 1432 1428 1427 1428 1417 1403 1400 1397 1392 1391 1381 1364 1358 1360 1360 1360 1361 1362 1363 1364 1370 1377 1378 1376 1371 1364 1364 1368 1368 1367 1367 1365 1364 1364 1364 1363 1364 1363 1363 1363 1363